Total_Precipitation_Accumulation
0.56 0.72 0.45 0.34 0.32 0.34 0.28 0.13 0.14 0.13 0.16 0.18 0.18 0.27 0.35 0.40 0.54 0.76 0.92 1.10 1.31 1.53 1.85 2.12 2.26 2.34 2.49 2.47 2.58 2.75 2.91 3.13 3.17 2.07 1.64 1.50 1.52 1.57 1.55 1.41 1.43 1.34 1.42
0.51 0.58 0.73 0.57 0.47 0.41 0.39 0.21 0.17 0.19 0.20 0.19 0.18 0.20 0.25 0.27 0.28 0.27 0.33 0.41 0.51 0.63 0.86 1.09 1.19 1.32 1.57 1.67 1.89 2.08 2.44 2.91 3.44 2.71 2.01 1.88 1.77 1.63 1.43 1.17 1.08 1.14 1.20
0.58 0.54 0.71 0.94 0.77 0.66 0.48 0.39 0.27 0.30 0.39 0.58 0.41 0.34 0.31 0.28 0.24 0.27 0.32 0.42 0.54 0.65 0.73 0.79 0.89 0.98 1.02 1.04 1.09 1.18 1.26 1.41 1.70 1.66 1.28 1.12 1.15 1.33 1.50 1.46 1.32 1.26 1.21
0.75 0.70 0.65 0.98 0.95 0.86 0.69 0.66 0.55 0.48 0.47 0.64 1.03 0.63 0.57 0.55 0.47 0.36 0.36 0.37 0.44 0.59 0.60 0.65 0.65 0.78 0.95 1.09 1.41 1.63 1.53 1.45 1.29 1.09 0.96 0.88 0.80 0.80 0.93 1.00 1.00 0.91 0.79
1.03 0.97 0.89 0.68 0.92 0.82 0.66 0.86 0.78 0.61 0.67 0.59 0.62 0.66 0.57 0.49 0.68 0.59 0.48 0.52 0.49 0.69 0.99 0.97 1.07 1.10 1.22 1.17 1.02 0.94 1.07 1.10 1.17 1.27 1.08 0.86 0.77 0.69 0.68 0.72 0.78 0.84 0.84
1.44 1.16 1.04 0.67 0.77 0.92 0.87 0.87 0.77 0.71 0.85 0.65 0.66 0.58 0.53 0.60 1.11 1.08 0.86 0.82 0.84 0.74 1.11 1.23 1.19 1.42 1.09 1.12 1.11 1.06 1.01 1.01 0.87 0.71 0.66 0.65 0.69 0.74 0.77 0.83 0.91 1.02 0.98
1.98 1.59 1.14 0.69 0.70 0.67 0.56 0.59 0.53 0.59 0.74 0.75 0.69 0.78 0.69 0.78 1.16 1.25 1.09 0.71 0.84 0.95 0.75 0.74 0.54 0.52 0.59 0.53 0.67 0.67 0.64 0.57 0.52 0.54 0.47 0.39 0.36 0.37 0.50 0.62 0.65 0.70 0.62
2.01 1.75 1.44 1.09 0.94 0.86 0.71 0.68 0.52 0.54 0.63 0.67 0.68 0.88 0.99 1.23 1.20 1.17 1.03 0.58 0.50 0.61 0.41 0.29 0.20 0.17 0.22 0.24 0.31 0.39 0.42 0.40 0.40 0.37 0.35 0.35 0.35 0.38 0.47 0.64 0.59 0.59 0.47
2.03 2.01 1.71 1.32 1.23 1.34 1.43 1.23 1.03 1.02 1.02 1.06 0.94 0.90 0.95 1.22 1.08 1.13 0.71 0.50 0.35 0.25 0.12 0.06 0.05 0.03 0.10 0.16 0.15 0.20 0.24 0.23 0.39 0.47 0.55 0.63 0.65 0.60 0.48 0.48 0.58 0.60 0.47
1.57 1.61 1.57 1.47 1.23 1.22 1.14 1.27 1.21 1.08 1.05 1.03 0.94 0.84 0.80 0.71 0.69 0.71 0.61 0.34 0.16 0.11 0.03 0.03 0.05 0.05 0.11 0.10 0.10 0.07 0.10 0.03 0.06 0.09 0.11 0.19 0.28 0.33 0.39 0.31 0.28 0.57 0.54
1.72 1.55 1.40 1.21 1.29 1.13 1.06 0.91 0.92 0.78 0.62 0.58 0.52 0.45 0.31 0.23 0.17 0.16 0.11 0.08 0.08 0.08 0.03 0.02 0.02 0.08 0.16 0.15 0.15 0.09 0.13 0.12 0.10 0.09 0.06 0.11 0.18 0.28 0.33 0.35 0.37 0.55 0.84
0.95 0.83 0.87 0.75 0.71 0.73 0.52 0.55 0.51 0.40 0.31 0.22 0.16 0.12 0.08 0.08 0.08 0.08 0.07 0.07 0.06 0.04 0.04 0.03 0.03 0.12 0.18 0.15 0.12 0.11 0.15 0.17 0.10 0.06 0.07 0.08 0.15 0.22 0.28 0.36 0.49 0.61 0.63
0.51 0.47 0.51 0.46 0.34 0.29 0.23 0.21 0.22 0.16 0.12 0.11 0.11 0.10 0.08 0.07 0.06 0.09 0.07 0.07 0.10 0.09 0.04 0.07 0.10 0.14 0.15 0.11 0.08 0.11 0.11 0.09 0.09 0.13 0.10 0.09 0.11 0.16 0.31 0.51 0.65 0.74 0.86
0.47 0.47 0.47 0.31 0.28 0.19 0.14 0.13 0.12 0.11 0.11 0.16 0.16 0.14 0.13 0.11 0.09 0.07 0.09 0.10 0.12 0.10 0.07 0.10 0.14 0.14 0.13 0.10 0.11 0.11 0.09 0.11 0.17 0.24 0.19 0.14 0.19 0.29 0.43 0.50 0.67 0.65 0.89
0.26 0.26 0.22 0.12 0.14 0.12 0.10 0.12 0.13 0.11 0.12 0.09 0.06 0.06 0.08 0.09 0.08 0.18 0.21 0.20 0.21 0.28 0.39 0.25 0.21 0.14 0.11 0.12 0.11 0.12 0.19 0.26 0.33 0.31 0.39 0.43 0.40 0.40 0.40 0.39 0.62 0.81 0.98
0.16 0.13 0.16 0.09 0.08 0.08 0.09 0.13 0.21 0.15 0.11 0.09 0.07 0.08 0.05 0.07 0.12 0.18 0.21 0.25 0.30 0.40 0.46 0.31 0.21 0.15 0.14 0.15 0.19 0.23 0.29 0.36 0.38 0.47 0.54 0.55 0.63 0.62 0.56 0.56 0.62 0.77 0.76
0.23 0.21 0.22 0.25 0.18 0.15 0.14 0.13 0.14 0.20 0.24 0.18 0.17 0.18 0.15 0.10 0.15 0.20 0.26 0.28 0.33 0.49 0.41 0.16 0.14 0.16 0.17 0.19 0.25 0.32 0.34 0.28 0.40 0.62 0.71 0.72 0.78 0.82 0.83 0.74 0.57 0.69 0.66
0.35 0.50 0.39 0.37 0.40 0.40 0.37 0.33 0.28 0.23 0.20 0.19 0.25 0.29 0.26 0.25 0.20 0.23 0.30 0.40 0.33 0.28 0.20 0.15 0.13 0.14 0.20 0.29 0.33 0.41 0.47 0.48 0.52 0.56 0.66 0.68 0.82 1.01 0.88 0.68 0.62 0.73 0.77
0.15 0.17 0.22 0.24 0.25 0.32 0.27 0.26 0.28 0.30 0.29 0.26 0.22 0.30 0.30 0.33 0.41 0.42 0.41 0.37 0.20 0.13 0.11 0.18 0.15 0.18 0.30 0.37 0.44 0.56 0.67 0.68 0.64 0.78 0.70 0.68 0.65 1.02 0.88 0.60 0.70 0.64 0.81
0.11 0.20 0.16 0.10 0.11 0.12 0.12 0.16 0.19 0.25 0.31 0.32 0.28 0.23 0.38 0.50 0.34 0.22 0.25 0.26 0.20 0.14 0.11 0.22 0.25 0.32 0.41 0.50 0.61 0.67 0.76 0.64 0.62 0.56 0.50 0.55 0.62 0.85 0.96 0.80 0.72 0.90 0.65
0.11 0.14 0.20 0.13 0.07 0.07 0.10 0.12 0.15 0.23 0.26 0.28 0.27 0.35 0.57 0.59 0.38 0.25 0.24 0.27 0.26 0.26 0.31 0.42 0.44 0.45 0.53 0.65 0.76 0.80 0.71 0.53 0.45 0.55 0.56 0.56 0.67 0.89 0.64 0.74 0.76 0.76 0.72
0.12 0.13 0.11 0.10 0.09 0.09 0.13 0.15 0.20 0.22 0.23 0.27 0.26 0.41 0.71 0.54 0.26 0.26 0.28 0.27 0.31 0.41 0.50 0.72 0.72 0.50 0.53 0.76 0.83 0.85 0.67 0.52 0.45 0.56 0.59 0.57 0.71 0.70 0.67 0.71 0.66 0.78 0.78
0.14 0.18 0.16 0.14 0.13 0.20 0.23 0.14 0.15 0.18 0.23 0.27 0.30 0.34 0.43 0.40 0.29 0.28 0.31 0.36 0.48 0.53 0.51 0.69 0.80 0.63 0.42 0.52 0.74 0.99 1.02 0.56 0.51 0.77 1.02 0.77 0.67 0.68 0.82 0.94 0.81 0.85 0.67
0.22 0.21 0.17 0.17 0.21 0.27 0.24 0.23 0.24 0.37 0.41 0.38 0.36 0.35 0.33 0.33 0.35 0.33 0.36 0.47 0.49 0.49 0.56 0.61 0.60 0.55 0.54 0.59 0.68 0.72 0.79 0.74 0.99 0.98 1.26 1.54 1.15 0.94 1.04 0.94 0.73 0.68 0.69
0.37 0.40 0.39 0.35 0.38 0.40 0.38 0.38 0.35 0.39 0.44 0.40 0.37 0.36 0.34 0.40 0.42 0.40 0.43 0.56 0.67 0.62 0.49 0.47 0.52 0.55 0.60 0.65 0.65 0.63 0.73 0.83 1.13 1.30 1.67 1.54 1.27 1.00 0.96 0.93 0.70 0.72 0.70
0.55 0.62 0.54 0.47 0.45 0.46 0.50 0.54 0.48 0.44 0.44 0.40 0.41 0.45 0.46 0.49 0.51 0.55 0.62 0.67 0.61 0.55 0.49 0.52 0.53 0.60 0.66 0.65 0.62 0.70 0.78 0.80 0.83 0.93 1.25 1.47 1.27 1.03 0.97 1.06 0.86 0.99 0.94